Find Starlink 31770

NORAD ID: 59601 Int'l Des: 2024-080 Owner: SPXS Country: US Constellation: starlink operational
LEOCIRCULAR

Aktuelle Ansicht

3D-Globus wird geladen...

Über Starlink 31770

Beschreibung wird geladen...

Nächste Überflüge

Passes for default location (London). Set your location on the main map for personalized predictions.

Höhenverlauf

Loading altitude history...

Zweizeiliger Elementsatz

1 59601U 24080A 26158.55869669 -.00001493 00000-0 -44732-4 0 9994
2 59601 43.0023 250.6577 0002515 284.9341 75.1232 15.27566655119482
Epoch: 7. Juni 2026 • Age: 13 hours

Aktueller Status

Höhe 482.2 km
Geschwindigkeit 7.63 km/s
Subsatellitenpunkt 14.38°N, 23.76°W
Startdatum 28. Apr. 2024
Alter 2.1 years
Typ internet

Technische Details

Klassifizierung Payload
Masse 730.00 kg
Trockenmasse 700.00 kg
Gesamtmasse 730.00 kg
Länge 0.30 m
Durchmesser 4.10 m
Spannweite 29.00 m
Form Box + pan
Hersteller SPXS
Bus-Typ Starlink V2M
Phasenstatus In Orbit
Besitzer/Staat SPXS/US

Most Searched